{"data":{"norad_id":53631,"epoch":"2026-05-25T00:15:30.807936Z","epoch_age_seconds":88301,"freshness":"FRESH","line1":"1 53631U 22104AV  26145.01077324  .00002532  00000+0  17713-3 0  9992","line2":"2 53631  53.2125 251.0231 0001571  94.9593 265.1578 15.08832140207280","mean_motion":15.0883214,"eccentricity":0.0001571,"inclination_deg":53.2125,"raan_deg":251.0231,"arg_perigee_deg":94.9593,"mean_anomaly_deg":265.1578,"bstar":0.00017713,"rev_number":20728,"period_min":95.438051843196,"perigee_km":538.68061116053,"apogee_km":540.85421672739,"semimajor_km":6917.904413944,"source":"CELESTRAK","updated_at":"2026-05-25T13:38:17.481597Z"}}